Flag for Kazakhstan Weather past 2 weeks in Astana, Kazakhstan

Now
72 °F

Passing clouds.


Feels Like: 76 °F
Forecast: 50 / 78 °F
Wind: 13 mph from West

Location: Astana

Current Time: Aug 28, 2015 at 2:37:21 PM

Latest Report: Aug 28, 2015 at 2:00 PM


Visibility: N/A

Pressure: 30.15 "Hg

Humidity: 25%

Dew point: 34 °F

Location of AstanaLocation

Historic Weather in Astana — Graph

°F

Astana temperature yesterday

Maximum temperature yesterday: 61 °F (at 4:30 PM)
Minimum temperature yesterday: 43 °F (at 1:00 AM)
Average temperature yesterday: 51 °F

Past Weeks' High & Low Weather Summary

 TemperatureHumidityPressure
High93 °F (Aug 18, 3:00 PM)94% (Aug 25, 11:00 PM)30.21 "Hg (Aug 25, 11:00 PM)
Low39 °F (Aug 28, 1:30 AM)8% (Aug 18, 5:00 PM)29.53 "Hg (Aug 25, 3:30 PM)
Average62 °F51%29.88 "Hg
* Reported Aug 13 1:00 PM — Aug 28 1:30 PM, Astana, Weather by CustomWeather, © 2015

Note: Actual official high and low records may vary slightly from our data, if they occured in-between our weather recording intervals... More about our weather records

Advertising

Astana weather history for previous 24 hours

 ConditionsComfort  
Time TempWeatherWind HumidityBarometerVisibility
1:30 PM
Fri, Aug 28
70 °FPassing clouds.15 mph27%30.15 "HgN/A
1:00 PM70 °FPassing clouds.13 mph27%30.15 "HgN/A
12:30 PM68 °FPassing clouds.15 mph28%30.15 "HgN/A
12:00 PM68 °FPassing clouds.17 mph28%30.15 "HgN/A
11:30 AM66 °FSunny.17 mph28%30.18 "Hg10 mi
11:00 AM64 °FSunny.17 mph30%30.15 "Hg10 mi
10:30 AM64 °FSunny.17 mph32%30.18 "Hg10 mi
10:00 AM61 °FSunny.17 mph36%30.18 "Hg10 mi
9:00 AM57 °FSunny.13 mph44%30.15 "Hg10 mi
8:30 AM52 °FSunny.10 mph58%30.15 "Hg10 mi
8:00 AM48 °FSunny.8 mph66%30.15 "Hg10 mi
7:30 AM45 °FSunny.6 mph76%30.15 "Hg10 mi
7:00 AM45 °FClear.6 mph71%30.15 "Hg10 mi
6:30 AM45 °FClear.6 mph76%30.15 "Hg10 mi
6:00 AM46 °FClear.6 mph71%30.15 "Hg10 mi
5:30 AM46 °FClear.6 mph71%30.12 "Hg10 mi
5:00 AM45 °FClear.6 mph76%30.15 "Hg10 mi
4:30 AM45 °FClear.6 mph76%30.15 "Hg10 mi
4:00 AM43 °FClear.6 mph81%30.15 "Hg10 mi
3:30 AM41 °FClear.6 mph81%30.15 "Hg10 mi
3:00 AM41 °FClear.6 mph81%30.15 "Hg10 mi
2:30 AM39 °FClear.6 mph87%30.15 "Hg10 mi
2:00 AM39 °FClear.6 mph87%30.15 "Hg10 mi
1:30 AM39 °FClear.6 mph87%30.15 "Hg10 mi
1:00 AM43 °FClear.8 mph76%30.15 "Hg10 mi
12:30 AM43 °FClear.6 mph81%30.15 "Hg10 mi
12:00 AM43 °FClear.6 mph81%30.15 "Hg10 mi
11:30 PM
Thu, Aug 27
45 °FClear.3 mph76%30.15 "Hg10 mi
11:00 PM45 °FClear.3 mph76%30.15 "Hg10 mi
10:30 PM45 °FClear.6 mph76%30.15 "Hg10 mi
10:00 PM45 °FClear.6 mph76%30.15 "Hg10 mi
9:30 PM48 °FClear.6 mph66%30.15 "Hg10 mi
9:00 PM52 °FSunny.3 mph54%30.15 "Hg10 mi
8:30 PM55 °FSunny.6 mph47%30.15 "Hg10 mi
8:00 PM57 °FPassing clouds.6 mph44%30.12 "HgN/A
7:30 PM59 °FPassing clouds.6 mph42%30.12 "HgN/A
7:00 PM59 °FSunny.8 mph39%30.12 "Hg10 mi
6:30 PM59 °FPassing clouds.10 mph39%30.12 "HgN/A
6:00 PM59 °FPassing clouds.10 mph39%30.09 "HgN/A
5:30 PM61 °FSunny.13 mph34%30.09 "Hg10 mi
5:00 PM61 °FPassing clouds.10 mph34%30.09 "HgN/A
4:30 PM61 °FPassing clouds.8 mph36%30.09 "HgN/A
3:30 PM57 °FPassing clouds.10 mph44%30.09 "HgN/A
3:00 PM59 °FPartly sunny.13 mph39%30.09 "HgN/A
2:30 PM57 °FPartly sunny.8 mph44%30.09 "HgN/A
2:00 PM59 °FPartly sunny.13 mph36%30.09 "HgN/A
Weather by CustomWeather, © 2015

See weather overviewHow to use our weather pages